Location: Fisheating Creek Campgrounds
(26.9333°N, 81.3167°W)
Time: 07:20:04
(UTC-05:00)

Cosmos 2221 Rocket - Visible Passes

Search period start: 08 February 2016 00:00
Search period end: 18 February 2016 00:00
Orbit: 620 x 649 km, 82.5° (Epoch: 08 February)

Date Brightness Start Highest point End Pass type
(mag) Time Alt. Az. Time Alt. Az. Time Alt. Az.
08 Feb 3.8 06:18:36 10° SSW 06:22:48 44° W 06:27:01 10° N visible
09 Feb 6.0 05:03:43 10° SE 05:07:10 23° E 05:10:36 10° NE visible
09 Feb 4.9 06:42:05 10° SW 06:45:12 19° WNW 06:48:20 10° NNW visible
10 Feb 4.2 05:25:01 10° S 05:29:18 55° E 05:33:37 10° NNE visible
11 Feb 3.5 05:47:14 10° SSW 05:51:33 58° W 05:55:55 10° N visible
12 Feb 6.2 04:33:02 10° SE 04:35:59 18° E 04:38:59 10° NE visible
12 Feb 4.6 06:10:22 10° SW 06:13:55 24° W 06:17:30 10° NNW visible
13 Feb 4.7 04:53:57 10° SSE 04:58:06 42° E 05:02:16 10° NNE visible
14 Feb 3.8 05:21:15 54° NNW 05:21:15 54° NNW 05:24:45 10° N visible
15 Feb 5.5 05:45:34 15° NNW 05:45:34 15° NNW 05:46:33 10° NNW visible
